Simultaneous Nadir Overpasses (SNOs) Predictions

Prediction of SNOs near US between AQUA and NPP Satellite Orbit:

Table of predicted SNOs near US for the next 10.0 days since TLE Epoch: 8/3/2012
Index Date (AQUA) Time (AQUA) AQUA Lat,Lon Date (NPP) Time (NPP) NPP Lat,Lon Distance(km) Time Diff (sec)
1 08/03/2012 21:30:56 36.60,-124.99 08/03/2012 21:27:41 36.12,-127.50 231.01 195
2 08/09/2012 06:31:38 41.11, -66.89 08/09/2012 06:30:07 41.50, -68.98 179.79 91
3 08/09/2012 08:08:03 49.91, -88.38 08/09/2012 08:09:03 50.39, -90.85 183.90 60
4 08/09/2012 09:46:56 49.91,-113.10 08/09/2012 09:50:31 50.50,-116.17 228.39 215
5 08/11/2012 19:06:09 49.99, -92.53 08/11/2012 18:59:20 49.65, -94.38 137.89 409
6 08/11/2012 20:45:02 49.99,-117.25 08/11/2012 20:40:48 49.54,-119.71 183.21 254
